Address 0x51393a56cdc3a0d51798cbf39653762ca85367ed

 
 
Txn Hash Method
Block
From
To
Value [Txn Fee]
0x3405b672419f1f8a5d04f08040ccac17430465c30b38c8827ba92f9129e9032bTransfer118694142021-10-18 3:53:036 hrs 45 mins ago0x51393a56cdc3a0d51798cbf39653762ca85367edOUT 0x727b531038198e27a1a4d0fd83e1693c1da948920 BNB0.00011305
0xa143d5e9b941492324e7e46494daea31b6b553133bad159efebe3f7dfcb31f50Transfer117652022021-10-14 12:38:383 days 21 hrs ago0x51393a56cdc3a0d51798cbf39653762ca85367edOUT0x5aa6fb8b12d96d9b8142f3604f0f93e054f789110.05 BNB0.000105
0xb9f47846403422ddb0f41fd303af50c7953e49d8b4ff3cff3327da4ff5ad973eTransfer117623962021-10-14 10:17:154 days 21 mins ago0x51393a56cdc3a0d51798cbf39653762ca85367edOUT BUSD-T Stablecoin0 BNB0.000180575
0x01d839818cd758ef436f3285777adf19ad70883c38b7c97cce6c1eba3820c5e1Swap Exact Token...117623452021-10-14 10:14:424 days 23 mins ago0x51393a56cdc3a0d51798cbf39653762ca85367edOUT PancakeSwap: Router v20 BNB0.00080396
0xb2763d1160ac3744a330753d964390d8ec70870b333cd14b4582b49655ea7c7eSwap Exact Token...117622532021-10-14 10:10:064 days 28 mins ago0x51393a56cdc3a0d51798cbf39653762ca85367edOUT PancakeSwap: Router v20 BNB0.00101438
0x86f99d5bb43c171db68b1c30960ca67147cfba95e78ac905cc37d60394c11bfdSwap Exact Token...117622512021-10-14 10:10:004 days 28 mins ago0x51393a56cdc3a0d51798cbf39653762ca85367edOUT PancakeSwap: Router v20 BNB0.00065114
0x9ca68274571f5a4370cb1a774789d476f0125ada32f85d67db2c780bd24f4ae5Create Sale Auct...117618142021-10-14 9:47:574 days 50 mins ago0x51393a56cdc3a0d51798cbf39653762ca85367edOUT 0x5ab19e7091dd208f352f8e727b6dcc6f8abb62750 BNB0.00089
0x3d5e7c1c13dc7c68355e6dbbd7caf2152e1ccd91726f5fb756608124e39b48f0Swap Exact Token...117606642021-10-14 8:50:274 days 1 hr ago0x51393a56cdc3a0d51798cbf39653762ca85367edOUT PancakeSwap: Router v20 BNB0.0005762
0xdaee9bc0b7bf08e8173046b493dbf0e186ef37d53e70f600a77db860d907a10eSwap Exact Token...117606442021-10-14 8:49:274 days 1 hr ago0x51393a56cdc3a0d51798cbf39653762ca85367edOUT PancakeSwap: Router v20 BNB0.000981325
0x249890e13b357b12e468180235bf88b4b3b827a491e3ead78c552186f9bce55aBid117605362021-10-14 8:44:034 days 1 hr ago0x51393a56cdc3a0d51798cbf39653762ca85367edOUT 0x926eae99527a9503eadb4c9e927f21f84f20c9770 BNB0.000714145
0x0c7902f242a74a652161e3a37d0e48cea3c87f2094531876d130258b9580c394Bid117604722021-10-14 8:40:514 days 1 hr ago0x51393a56cdc3a0d51798cbf39653762ca85367edOUT 0x926eae99527a9503eadb4c9e927f21f84f20c9770 BNB0.000254695
0x09382f1d1e3217fb50daded89f83248ebae96a0cdebb54a23be4ff40401b8490Create Sale Auct...117602782021-10-14 8:31:094 days 2 hrs ago0x51393a56cdc3a0d51798cbf39653762ca85367edOUT 0x5ab19e7091dd208f352f8e727b6dcc6f8abb62750 BNB0.00088988
0x2d5dade535f589c5d3354a706c59ba9d437709bae061b8ef2f1a3935582e49b9Transfer117601972021-10-14 8:27:064 days 2 hrs ago0x51393a56cdc3a0d51798cbf39653762ca85367edOUT BUSD-T Stablecoin0 BNB0.000105695
0xb00d899fff6fb4fb68426b06201a9175235be500e6577602e24fbd7879d31702Swap Exact Token...117601592021-10-14 8:25:124 days 2 hrs ago0x51393a56cdc3a0d51798cbf39653762ca85367edOUT PancakeSwap: Router v20 BNB0.001222815
0x933357888b369abe956eec5535bfa2c38d23f0967b385528bbc9430cf392bef2Swap Exact Token...117601452021-10-14 8:24:304 days 2 hrs ago0x51393a56cdc3a0d51798cbf39653762ca85367edOUT PancakeSwap: Router v20 BNB0.001038805
0x2401956256765159c4ea272f25d78383e23611b7d48cd52eb10a9bc8ada5ac66Bid117600632021-10-14 8:20:244 days 2 hrs ago0x51393a56cdc3a0d51798cbf39653762ca85367edOUT 0x926eae99527a9503eadb4c9e927f21f84f20c9770 BNB0.000273505
0xab663c36e94013190e83998ab882bf6016a8f7784d36c0c45a344e801f8df4dfBid117599502021-10-14 8:14:234 days 2 hrs ago0x51393a56cdc3a0d51798cbf39653762ca85367edOUT 0x926eae99527a9503eadb4c9e927f21f84f20c9770 BNB0.000639145
0xc48f058f4dc1f29959d777bc245fc44e90a2314850c382aff878ccff66116515Create Sale Auct...117597932021-10-14 8:06:324 days 2 hrs ago0x51393a56cdc3a0d51798cbf39653762ca85367edOUT 0x5ab19e7091dd208f352f8e727b6dcc6f8abb62750 BNB0.000848
0xc50526409aeb6093f8cbf954a35a272499399b358def5e6b12d866e39c4e1298Transfer117357102021-10-13 11:51:584 days 22 hrs ago0x51393a56cdc3a0d51798cbf39653762ca85367edOUT 0x727b531038198e27a1a4d0fd83e1693c1da948920 BNB0.00026305
0xe3a1e36f7b1507b9431439f32c0ad05d612f8634172a2d45a2ad653d2955f3d4Claim Payment117292902021-10-13 6:12:175 days 4 hrs ago0x51393a56cdc3a0d51798cbf39653762ca85367edOUT 0x127ed82e4b783b067465c018bb30d50ee8c88bc90 BNB0.00034585
0xd903308546ab96565abac9cdb86cd035510850b47a31addec2e5085ce39be52bCancel Auction117128792021-10-12 16:30:165 days 18 hrs ago0x51393a56cdc3a0d51798cbf39653762ca85367edOUT 0x926eae99527a9503eadb4c9e927f21f84f20c9770 BNB0.000113035
0x8aa5250722dd004d60b22d14314cd9a9c76960baf94021758a94c960ccaadbccCreate Sale Auct...117127782021-10-12 16:25:135 days 18 hrs ago0x51393a56cdc3a0d51798cbf39653762ca85367edOUT 0x5ab19e7091dd208f352f8e727b6dcc6f8abb62750 BNB0.00084788
0xb26295657db920c971656d8a26f97ff67f0ab5d40dd0d6e7474accae5aaeb233Transfer117107222021-10-12 14:40:555 days 19 hrs ago0x51393a56cdc3a0d51798cbf39653762ca85367edOUT0x5aa6fb8b12d96d9b8142f3604f0f93e054f789110.1 BNB0.000105
0xa8f5e76ddc70cc5ccf0e13c5cde1830ea64f38bd4915e15f62a2b18efef1d3b6Swap Exact Token...117106512021-10-12 14:37:195 days 20 hrs ago0x51393a56cdc3a0d51798cbf39653762ca85367edOUT PancakeSwap: Router v20 BNB0.0005762
0x48077651c31cf57fa03f1009c83958f32b0f050de20e60be5a177b0df3d4e53e0xb6ace2fd117101582021-10-12 14:12:405 days 20 hrs ago0x51393a56cdc3a0d51798cbf39653762ca85367edOUT 0x5c50d79adc20630aef122ed2cf953e377cddd0f40 BNB0.00026948
[ Download CSV Export 
Latest 6 internal transactions
Parent Txn Hash Block From To Value
0x86f99d5bb43c171db68b1c30960ca67147cfba95e78ac905cc37d60394c11bfd117622512021-10-14 10:10:004 days 28 mins ago PancakeSwap: Router v20x51393a56cdc3a0d51798cbf39653762ca85367ed0.03993432037208025 BNB
0x3d5e7c1c13dc7c68355e6dbbd7caf2152e1ccd91726f5fb756608124e39b48f0117606642021-10-14 8:50:274 days 1 hr ago PancakeSwap: Router v20x51393a56cdc3a0d51798cbf39653762ca85367ed0.019864990282024535 BNB
0xa8f5e76ddc70cc5ccf0e13c5cde1830ea64f38bd4915e15f62a2b18efef1d3b6117106512021-10-12 14:37:195 days 20 hrs ago PancakeSwap: Router v20x51393a56cdc3a0d51798cbf39653762ca85367ed0.105137764328823813 BNB
0x20b56c6958e0645a683fbc4f23572f9677084d1e1a39d2bc49f64ce534edba6f116186422021-10-09 9:01:399 days 1 hr ago PancakeSwap: Router v20x51393a56cdc3a0d51798cbf39653762ca85367ed0.000146365995418878 BNB
0xc10251063fd2b7feb5db7cfe3e3bf21e7906264d84d1165d89474c887205bb3e114229572021-10-02 13:30:1515 days 21 hrs ago PancakeSwap: Router v20x51393a56cdc3a0d51798cbf39653762ca85367ed0.022603631140672931 BNB
0xdf3228d289f8e3565461528f891a63ac25cf9a72179058a3629d7e2fc7d2ce6a103390642021-08-25 14:14:2753 days 20 hrs ago PancakeSwap: Router v20x51393a56cdc3a0d51798cbf39653762ca85367ed0.000814913118107941 BNB
[ Download CSV Export 
Loading

Contract Name:
0 BNB

Compiler Version
0

Optimization Enabled:
0 BNB

Other Settings:
-NA-
Block Transaction Gas Used Reward
Age Block Fee Address BC Fee Address Voting Power Jailed Incoming
Block Uncle Number Difficulty Gas Used Reward
Loading
Loading
Make sure to use the "Vote Down" button for any spammy posts, and the "Vote Up" for interesting conversations.